| time (UTC) | temp F | wind direction | speed MPH | gust MPH | rain 1hr in | rain 24hr in | rain mn in | humidity % | barometer mb |
| 20260506013038 | 69 | 263 | 12.0 | 26.0 | 0.00 | 0.39 | 0.00 | 31 | 1009.0 |
| 20260506011525 | 70 | 275 | 14.0 | 24.0 | 0.00 | 0.39 | 0.00 | 30 | 1008.9 |
| 20260506010024 | 70 | 265 | 14.0 | 27.0 | 0.00 | 0.39 | 0.00 | 31 | 1008.7 |
| 20260506004517 | 70 | 280 | 12.0 | 21.0 | 0.00 | 0.40 | 0.00 | 32 | 1008.6 |
| 20260506003017 | 70 | 210 | 14.0 | 21.0 | 0.00 | 0.40 | 0.00 | 32 | 1008.4 |
| 20260506001517 | 70 | 220 | 14.0 | 24.0 | 0.00 | 0.40 | 0.00 | 32 | 1008.5 |
| 20260506000009 | 71 | 236 | 12.0 | 22.0 | 0.00 | 0.40 | 0.00 | 31 | 1008.4 |
| 20260505234508 | 71 | 247 | 10.0 | 21.0 | 0.00 | 0.40 | 0.00 | 30 | 1008.2 |
| 20260505233006 | 72 | 255 | 11.0 | 23.0 | 0.00 | 0.40 | 0.00 | 29 | 1008.2 |
| 20260505231505 | 72 | 194 | 12.0 | 25.0 | 0.00 | 0.40 | 0.00 | 28 | 1008.3 |
| 20260505230049 | 71 | 230 | 14.0 | 22.0 | 0.00 | 0.40 | 0.00 | 28 | 1008.3 |
| 20260505224530 | 72 | 250 | 15.0 | 28.0 | 0.00 | 0.40 | 0.40 | 27 | 1008.1 |
| 20260505223029 | 72 | 250 | 12.0 | 25.0 | 0.00 | 0.40 | 0.40 | 31 | 1008.3 |
| 20260505221533 | 72 | 250 | 18.0 | 27.0 | 0.00 | 0.40 | 0.40 | 32 | 1008.3 |
| 20260505220026 | 71 | 295 | 18.0 | 28.0 | 0.00 | 0.40 | 0.40 | 34 | 1008.3 |
| 20260505214526 | 71 | 268 | 16.0 | 24.0 | 0.00 | 0.40 | 0.40 | 37 | 1008.4 |
| 20260505213026 | 70 | 250 | 10.0 | 27.0 | 0.00 | 0.40 | 0.40 | 40 | 1008.6 |
| 20260505211523 | 70 | 212 | 12.0 | 22.0 | 0.00 | 0.40 | 0.40 | 40 | 1008.6 |
| 20260505210022 | 72 | 236 | 14.0 | 23.0 | 0.00 | 0.40 | 0.40 | 37 | 1008.6 |
| 20260505204523 | 70 | 173 | 13.0 | 25.0 | 0.00 | 0.40 | 0.40 | 42 | 1008.9 |
| 20260505203057 | 70 | 191 | 11.0 | 21.0 | 0.00 | 0.40 | 0.40 | 44 | 1008.8 |
| 20260505201552 | 71 | 234 | 13.0 | 21.0 | 0.00 | 0.40 | 0.40 | 44 | 1009.0 |
| 20260505200048 | 69 | 246 | 10.0 | 19.0 | 0.00 | 0.40 | 0.40 | 51 | 1009.1 |
| 20260505194600 | 69 | 201 | 8.0 | 15.0 | 0.00 | 0.40 | 0.40 | 53 | 1009.2 |
| 20260505193046 | 67 | 277 | 5.0 | 11.0 | 0.00 | 0.40 | 0.40 | 58 | 1009.3 |
| 20260505191546 | 67 | 325 | 6.0 | 13.0 | 0.00 | 0.40 | 0.40 | 57 | 1009.4 |
| 20260505190044 | 67 | 267 | 2.0 | 14.0 | 0.00 | 0.40 | 0.40 | 58 | 1009.8 |
| 20260505184543 | 68 | 295 | 9.0 | 13.0 | 0.00 | 0.40 | 0.40 | 58 | 1010.0 |
| 20260505183053 | 66 | 300 | 1.0 | 11.0 | 0.00 | 0.40 | 0.40 | 61 | 1010.1 |
| 20260505181542 | 67 | 222 | 4.0 | 8.0 | 0.00 | 0.40 | 0.40 | 60 | 1010.3 |
| 20260505180039 | 66 | 212 | 3.0 | 13.0 | 0.00 | 0.40 | 0.40 | 62 | 1010.4 |
| 20260505174546 | 65 | 181 | 2.0 | 9.0 | 0.00 | 0.40 | 0.40 | 64 | 1010.5 |
| 20260505173046 | 63 | 285 | 3.0 | 11.0 | 0.00 | 0.40 | 0.40 | 67 | 1010.5 |
| 20260505171538 | 63 | 85 | 0.0 | 2.0 | 0.00 | 0.40 | 0.40 | 67 | 1010.5 |
| 20260505170038 | 63 | 42 | 2.0 | 5.0 | 0.00 | 0.40 | 0.40 | 69 | 1010.4 |
| 20260505164549 | 62 | 284 | 1.0 | 7.0 | 0.00 | 0.40 | 0.40 | 71 | 1010.5 |
| 20260505163036 | 61 | 257 | 2.0 | 7.0 | 0.00 | 0.40 | 0.40 | 71 | 1010.5 |
| 20260505161537 | 61 | 254 | 3.0 | 7.0 | 0.00 | 0.40 | 0.40 | 72 | 1010.5 |
| 20260505153047 | 60 | 93 | 0.0 | 0.0 | 0.00 | 0.40 | 0.40 | 78 | 1010.1 |
| 20260505151539 | 60 | 93 | 0.0 | 0.0 | 0.00 | 0.40 | 0.40 | 80 | 1010.1 |
| 20260505140108 | 57 | 92 | 1.0 | 4.0 | 0.00 | 0.40 | 0.40 | 86 | 1009.6 |
| 20260505124553 | 56 | 118 | 0.0 | 0.0 | 0.01 | 0.40 | 0.40 | 86 | 1008.9 |
| 20260505123103 | 56 | 113 | 2.0 | 7.0 | 0.02 | 0.40 | 0.40 | 86 | 1008.6 |
| 20260505121550 | 55 | 14 | 0.0 | 2.0 | 0.02 | 0.39 | 0.39 | 86 | 1008.7 |
| 20260505120050 | 56 | 13 | 1.0 | 5.0 | 0.03 | 0.39 | 0.39 | 86 | 1008.5 |
| 20260505114549 | 55 | 24 | 2.0 | 3.0 | 0.04 | 0.39 | 0.39 | 86 | 1008.2 |
| 20260505113050 | 56 | 63 | 1.0 | 4.0 | 0.03 | 0.38 | 0.38 | 87 | 1008.6 |
| 20260505111553 | 55 | 5 | 2.0 | 3.0 | 0.04 | 0.37 | 0.37 | 86 | 1008.7 |
| 20260505101540 | 56 | 82 | 2.0 | 6.0 | 0.03 | 0.33 | 0.33 | 86 | 1009.5 |
| 20260505100049 | 56 | 86 | 2.0 | 6.0 | 0.05 | 0.33 | 0.33 | 84 | 1009.3 |
| 20260505094538 | 57 | 128 | 9.0 | 15.0 | 0.06 | 0.33 | 0.33 | 83 | 1009.5 |
| 20260505093036 | 56 | 158 | 9.0 | 17.0 | 0.06 | 0.32 | 0.32 | 84 | 1009.9 |
| 20260505091541 | 56 | 151 | 7.0 | 14.0 | 0.05 | 0.30 | 0.30 | 84 | 1010.3 |
| 20260505090047 | 57 | 134 | 8.0 | 15.0 | 0.06 | 0.28 | 0.28 | 85 | 1010.7 |
| 20260505084535 | 56 | 142 | 5.0 | 9.0 | 0.08 | 0.27 | 0.27 | 85 | 1011.0 |
| 20260505083035 | 57 | 169 | 7.0 | 12.0 | 0.09 | 0.26 | 0.26 | 85 | 1011.7 |
| 20260505081601 | 57 | 149 | 3.0 | 8.0 | 0.09 | 0.25 | 0.25 | 85 | 1011.9 |
| 20260505080053 | 57 | 94 | 0.0 | 1.0 | 0.08 | 0.22 | 0.22 | 84 | 1012.2 |
| 20260505074522 | 57 | 94 | 0.0 | 0.0 | 0.07 | 0.19 | 0.19 | 83 | 1012.3 |
| 20260505073021 | 57 | 94 | 0.0 | 3.0 | 0.06 | 0.17 | 0.17 | 83 | 1012.4 |
| 20260505071550 | 57 | 94 | 1.0 | 4.0 | 0.06 | 0.16 | 0.16 | 83 | 1012.2 |
| 20260505070048 | 58 | 94 | 0.0 | 1.0 | 0.05 | 0.14 | 0.14 | 82 | 1012.2 |
| 20260505064545 | 58 | 94 | 0.0 | 1.0 | 0.04 | 0.12 | 0.12 | 80 | 1012.0 |
| 20260505063044 | 58 | 94 | 0.0 | 0.0 | 0.03 | 0.11 | 0.11 | 78 | 1011.9 |
| 20260505061609 | 58 | 94 | 0.0 | 0.0 | 0.02 | 0.10 | 0.10 | 76 | 1011.9 |
| 20260505060045 | 58 | 94 | 0.0 | 0.0 | 0.01 | 0.09 | 0.09 | 76 | 1011.9 |
| 20260505054520 | 58 | 94 | 0.0 | 0.0 | 0.00 | 0.08 | 0.08 | 76 | 1011.4 |
| 20260505053011 | 59 | 94 | 0.0 | 0.0 | 0.00 | 0.08 | 0.08 | 73 | 1011.8 |
| 20260505051506 | 58 | 94 | 0.0 | 6.0 | 0.00 | 0.08 | 0.08 | 74 | 1012.1 |
| 20260505041530 | 56 | 51 | 1.0 | 5.0 | 0.00 | 0.08 | 0.08 | 78 | 1011.4 |
| 20260505040030 | 56 | 49 | 4.0 | 6.0 | 0.00 | 0.08 | 0.08 | 79 | 1011.1 |
| 20260505034525 | 55 | 81 | 2.0 | 6.0 | 0.01 | 0.08 | 0.08 | 80 | 1010.8 |
| 20260505033033 | 56 | 79 | 6.0 | 9.0 | 0.03 | 0.08 | 0.08 | 80 | 1010.8 |
| 20260505031521 | 56 | 76 | 5.0 | 9.0 | 0.04 | 0.08 | 0.08 | 78 | 1010.9 |
| 20260505030018 | 56 | 28 | 5.0 | 10.0 | 0.04 | 0.08 | 0.08 | 77 | 1011.5 |
| 20260505024604 | 57 | 22 | 4.0 | 8.0 | 0.03 | 0.07 | 0.07 | 75 | 1011.4 |
| 20260505023043 | 59 | 44 | 3.0 | 9.0 | 0.02 | 0.05 | 0.05 | 72 | 1011.7 |
| 20260505021547 | 59 | 38 | 3.0 | 5.0 | 0.02 | 0.04 | 0.04 | 71 | 1011.4 |
| 20260505020041 | 60 | 91 | 0.0 | 6.0 | 0.02 | 0.04 | 0.04 | 71 | 1011.4 |
| 20260505014634 | 60 | 86 | 3.0 | 8.0 | 0.03 | 0.04 | 0.04 | 73 | 1011.2 |